Volver al catálogo

CRRES DEB

CANISTER

LostHEO
NORAD 27052·DEBRIS·🇺🇸 United States

Lanzado Jul 25, 1990 desde Cape Canaveral Space Force Station

Loading…

Próximos Pases (próximas 24 horas)

TLE

ObsoletoSource: Space-Track

Época: Oct 10, 2025, 10:50 UTC

1 27052U 90065V   25283.45144974  .00001570  00000-0  12370-2 0  9992
2 27052  17.9916 313.3829 6915691 214.3919  70.3563  2.70743309260979

Sigue CRRES DEB en tiempo real con AllMySat

Download on the App Store